This is the latest recevied weather packets stored in our database for station/object UA1CAS-13. If no packets are shown the sender has not sent any weather packets the latest 10 day(s).
| Time | Temp. | Humidity | Pressure | Rain* | Wind** | Luminosity | Snow |
|---|---|---|---|---|---|---|---|
| 1778322275 | 15° C | 35% | 1028 hPa | - | - | - | - |
| 1778321374 | 15.56° C | 35% | 1028 hPa | - | - | - | - |
| 1778320473 | 15° C | 38% | 1028 hPa | - | - | - | - |
| 1778319572 | 13.33° C | 39% | 1028 hPa | - | - | - | - |
| 1778318671 | 13.89° C | 41% | 1028 hPa | - | - | - | - |
| 1778317770 | 15° C | 42% | 1028 hPa | - | - | - | - |
| 1778316869 | 13.33° C | 43% | 1028 hPa | - | - | - | - |
| 1778315967 | 13.89° C | 47% | 1028 hPa | - | - | - | - |
| 1778315066 | 13.89° C | 46% | 1029 hPa | - | - | - | - |
| 1778314165 | 13.33° C | 46% | 1029 hPa | - | - | - | - |
| 1778313264 | 13.89° C | 47% | 1029 hPa | - | - | - | - |
| 1778312363 | 13.33° C | 48% | 1029 hPa | - | - | - | - |
| 1778311462 | 12.78° C | 50% | 1029 hPa | - | - | - | - |
| 1778310561 | 13.89° C | 47% | 1029 hPa | - | - | - | - |
| 1778309660 | 14.44° C | 46% | 1029 hPa | - | - | - | - |
| 1778308759 | 13.33° C | 48% | 1029 hPa | - | - | - | - |
| 1778307858 | 13.89° C | 47% | 1029 hPa | - | - | - | - |
| 1778306957 | 13.33° C | 49% | 1029 hPa | - | - | - | - |
| 1778306056 | 12.22° C | 51% | 1029 hPa | - | - | - | - |
| 1778305155 | 12.22° C | 51% | 1029 hPa | - | - | - | - |
| 1778304253 | 11.67° C | 51% | 1029 hPa | - | - | - | - |
| 1778303352 | 11.11° C | 53% | 1028 hPa | - | - | - | - |
| 1778302451 | 11.67° C | 52% | 1028 hPa | - | - | - | - |
| 1778301550 | 12.22° C | 51% | 1028 hPa | - | - | - | - |
| 1778300648 | 11.67° C | 52% | 1028 hPa | - | - | - | - |
* Rain since midnight (hover to see other rain measurements)
** Current wind speed in m/s (hover to see current wind gust speed)